Retour au catalogue

THORAD AGENA D DEB

ActifSSO
NORAD 4637·DEBRIS·🇺🇸 United States

Lancé Apr 8, 1970 depuis Vandenberg Space Force Base

Loading…

Prochains Passages (prochaines 24 heures)

TLE

FraisSource: Space-Track

Époque: Sep 14, 2026, 02:17 UTC

1 04637U 70025V   26257.09563885  .00000034  00000-0  99852-4 0  9994
2 04637  99.9095 296.9902 0024890 104.3192 281.6636 13.64789424799761

Suivez THORAD AGENA D DEB en temps réel avec AllMySat

Download on the App Store